Las Vegas, NM

9:32 PM MST on February 25, 2018 (GMT -0700)
Las Vegas Municipal

Weather History for KLVS - October, 2011

Change the Weather History Date:

Sunday, October 23, 2011

  Actual Average Record
Temperature  
Mean Temperature 51 °F -  
Max Temperature 71 °F 62 °F 82 °F (2003)
Min Temperature 33 °F 34 °F 23 °F (2008)
Degree Days  
Heating Degree Days 14    
Growing Degree Days 1 (Base 50)    
Moisture  
Dew Point 21 °F    
Average Humidity 34    
Maximum Humidity 52    
Minimum Humidity 15    
Precipitation  
Precipitation 0.00 in - - ()
Sea Level Pressure  
Sea Level Pressure 30.08 in    
Wind  
Wind Speed 4 mph (South)    
Max Wind Speed 15 mph    
Max Gust Speed 17 mph    
Visibility 10 miles    
Events      
Averages and records for this station are not official NWS values.
T = Trace of Precipitation, MM = Missing Value Source: NWS Daily Summary

Daily Weather History Graph

Daily Weather History Graph

Search for Another Location

Airport or City:

Trip Planner

Search our weather history database for the weather conditions in past years. The results will help you decide how hot, cold, wet, or windy it might be!

Date:

Astronomy

Oct. 23, 2011 Rise Set
Actual Time 7:13 AM MDT 6:15 PM MDT
Civil Twilight 6:47 AM MDT 6:41 PM MDT
Nautical Twilight 6:18 AM MDT 7:11 PM MDT
Astronomical Twilight 5:48 AM MDT 7:40 PM MDT
Moon 3:30 AM MDT (10/23) 4:02 PM MDT (10/23)
Length of Visible Light 11h 53m
Length of Day
11h 01m
Waning Crescent, 14% of the Moon is Illuminated
Oct 23
Waning Crescent
Oct 26
New
Nov 2
First Quarter
Nov 10
Full
Nov 18
Last Quarter

Hourly Weather History & Observations

Time (MDT) Temp. Windchill Dew Point Humidity Pressure Visibility Wind Dir Wind Speed Gust Speed Precip Events Conditions
12:53 AM 45.0 °F - 19.9 °F 37% 30.04 in 10.0 mi Calm Calm - N/A   Clear
1:53 AM 46.0 °F 44.8 °F 21.0 °F 37% 30.03 in 10.0 mi West 3.5 mph - N/A   Clear
2:53 AM 44.1 °F 40.8 °F 21.0 °F 40% 30.01 in 10.0 mi WSW 5.8 mph - N/A   Clear
3:53 AM 33.1 °F - 17.1 °F 52% 30.05 in 10.0 mi Calm Calm - N/A   Clear
4:53 AM 37.0 °F - 19.9 °F 50% 30.05 in 10.0 mi Calm Calm - N/A   Clear
5:53 AM 37.0 °F 33.3 °F 19.9 °F 50% 30.07 in 10.0 mi North 4.6 mph - N/A   Clear
6:53 AM 39.0 °F - 21.0 °F 49% 30.09 in 10.0 mi Calm Calm - N/A   Clear
7:53 AM 35.1 °F - 19.0 °F 52% 30.15 in 10.0 mi Calm Calm - N/A   Clear
8:53 AM 48.0 °F - 23.0 °F 37% 30.11 in 10.0 mi Calm Calm - N/A   Clear
9:53 AM 55.9 °F - 24.1 °F 29% 30.10 in 10.0 mi SSW 5.8 mph - N/A   Clear
10:53 AM 60.1 °F - 23.0 °F 24% 30.09 in 10.0 mi South 5.8 mph - N/A   Clear
11:53 AM 63.0 °F - 24.1 °F 23% 30.08 in 10.0 mi Variable 5.8 mph - N/A   Clear
12:53 PM 64.9 °F - 21.0 °F 19% 30.07 in 10.0 mi Calm Calm - N/A   Clear
1:53 PM 68.0 °F - 21.0 °F 17% 30.03 in 10.0 mi South 5.8 mph - N/A   Clear
2:53 PM 69.1 °F - 19.9 °F 15% 30.01 in 10.0 mi SE 5.8 mph - N/A   Clear
3:53 PM 69.1 °F - 19.0 °F 15% 30.06 in 10.0 mi SSE 11.5 mph 17.3 mph N/A   Clear
4:53 PM 69.1 °F - 19.0 °F 15% 30.04 in 10.0 mi South 12.7 mph - N/A   Clear
6:53 PM 55.0 °F - 19.9 °F 25% 30.11 in 10.0 mi SSE 11.5 mph - N/A   Clear
7:53 PM 51.1 °F - 21.9 °F 32% 30.17 in 10.0 mi South 8.1 mph - N/A   Clear
8:53 PM 53.1 °F - 23.0 °F 31% 30.10 in 10.0 mi South 15.0 mph - N/A   Clear
9:53 PM 46.9 °F - 24.1 °F 41% 30.10 in 10.0 mi South 10.4 mph - N/A   Clear
10:53 PM 46.9 °F - 25.0 °F 42% 30.09 in 10.0 mi Calm Calm - N/A   Clear
11:53 PM 43.0 °F - 21.9 °F 43% 30.09 in 10.0 mi Calm Calm - N/A   Clear